Terug naar catalogus

FENGYUN 1C DEB

ActiefSSO
NORAD 38516·DEBRIS·🇨🇳 China

Gelanceerd May 10, 1999 vanaf Taiyuan Satellite Launch Center

Loading…

Volgende Passages (komende 24 uur)

TLE

VerouderendSource: Space-Track

Epoch: Sep 11, 2026, 04:32 UTC

1 38516U 99025ETB 26254.18942418  .00000228  00000-0  90575-4 0  9996
2 38516  98.4682 237.2302 0111052  36.8240 324.0507 14.34245808887782

Volg FENGYUN 1C DEB in realtime met AllMySat

Download on the App Store